SPACEMOBILE-SSR01 DEB, 62369

Orbit data source: Space-Track

SPACEMOBILE-SSR01 DEB, 62369 is space debris in LEO originally from a launch on Thu, 12 Sep 2024 UTC launched from the Air Force Eastern Test Range (AFETR). Debris objects in space refer to the collection of defunct objects orbiting the Earth. Examples of debris include non-operational satellites, rocket bodies, and fragments generated from explosions, collisions, or faulty payload assembly.

Loading next visibility...
Identifier
62369, 2024-163F
Orbit
LEO
Last TLE update
8 hours ago
Origin
Manufacturer
AST & Science
Mission
Spacecraft
Bus & Motor
BW3 LVA, Unknown motor
Mass
150 kg wet, 150 kg dry
Launch date (UTC)
2024-09-12 (10 months ago)
Launch vehicle
Unknown
Launch site
Air Force Eastern Test Range (AFETR)
Object type
Payload
Rocket body
Debris
Shape & HBR
Cyl, 2 m
Radar Cross Section
1.963 m², Large (>1 m²)

Expand to show TLE details & history

TLE from 8 hours ago
0 SPACEMOBILE-SSR01 DEB
1 62369U 24163F   25182.12615526  .00005317  00000-0  21264-3 0  9992
2 62369  52.9963 117.4643 0010041 135.2934 224.8874 15.26687690 44420
Epoch: 2025-07-01T03:01Z
TLE epoch observation values (Epoch: 2025-07-01T03:01:39.814Z)
Latitude
-0.00003°
Longitude
152.6223°
Altitude
491.489 km
Speed
7.618 km/s
True Right ascension
07h 49m 51s
True Declination
0° 00' 00"
Sunlit
Object was in daylight at epoch
Visualization orbit readout
Latitude
-50.52288°
Longitude
85.66644°
Altitude
509.065 km
Speed
7.606 km/s
Apparent Right ascension
07h 02m 39s
Apparent Declination
-58° 06' 02"
Sunlit
Object is in daylight
Visualization observer readout
Local Sidereal Time
22:11:52
Azimuth
137.324° SSE
Elevation
-55.045°
Doppler factor
1
Orbital elements
Apogee altitude
492.897 km
Perigee altitude
479.112 km
Semi-major axis
6,864.142 km
Eccentricity
0.001
Inclination
52.9963°
RAAN
117.4643°
Arg. of periapsis
135.2934°
True anomaly
Unknown
Mean anomaly
224.8874°
Eccentric anomaly
Unknown
Mean motion
3.81649 °/min
Orbital period
94.33 mins
BSTAR
0.00021264
Loading maneuver chart data...
Loading SW <> Apogee altitude chart data...
Loading historical data...
Loading historical data...
Loading historical data...
Loading historical data...
Loading historical data...
Loading historical data...
Loading historical data...

SPACEMOBILE-SSR01 DEB Visibility forecast

Observer location: undefined°, undefined°

Span
Click to sort rows by Start time (UTC) header in descending order
Start Az.
Max El. time (UTC)
Max El. Az.
Max El.
End time (UTC)
End Az.
7 mins2025-07-01 22:02:24.026Z212.126° SW2025-07-01 22:06:24.026Z106.247° ESE36.678°2025-07-01 22:09:24.026Z59.587° ENE
4 mins2025-07-01 23:42:24.026Z290.941° WNW2025-07-01 23:44:24.026Z336.886° NNW22.741°2025-07-01 23:46:24.026Z19.417° NNE
6 mins2025-07-02 04:39:24.026Z325.549° NNW2025-07-02 04:41:24.026Z10.111° NNE35.475°2025-07-02 04:45:24.026Z110.96° ESE
4 mins2025-07-02 06:18:24.026Z259.373° W2025-07-02 06:19:24.026Z238.574° WSW18.624°2025-07-02 06:22:24.026Z183.452° SSW
|